www.pogodaiklimat.ru

Погода и климат >> Архив погоды >> Россия >> Краснодарский край >> Белая Глина


ПОГОДА в Белой Глине

  • Прогноз погоды в Белой Глине
  • Монитор погоды в Белой Глине

АРХИВ ПОГОДЫ в Белой Глине

Время (UTC), дата Ветер
(напр.,м/с)
 
Видим.   Явления Облачность Т
(С)
Тd
(С)
f
(%)
Тe
(С)
Тes
(С)
Комфортность P
(гПа)
Po
(гПа)
Тmin
(С)
Tmax
(С)
R
(мм)
R24
(мм)
S
(см)
00 14.04 ЮЗ 1 4000 м дымка 8/0
[Ac lent]
+9.9 +8.9 93 +9 +9 1015.3 1006.9
03 14.04 В 1 4000 м дымка 10/6 300 м
[Cb cap Ac lent]
+10.0 +8.9 93 +9 +9 1014.7 1006.3 +9.2
06 14.04 ЮВ 2 10 км 4/0
[Cs]
+14.2 +10.1 76 +14 +21 1014.0 1005.8
09 14.04 СВ 1 10 км 8/0
[Ac lent]
+17.7 +9.4 58 +19 +25 1012.7 1004.5
12 14.04 В 2 10 км 8/4 1000 м
[Cu med, cong Ci ing]
+19.2 +7.9 48 +20 +25 1011.3 1003.3
15 14.04 СВ 1 10 км 10/0
[Ac lent]
+18.1 +8.9 55 +19 +20 1010.5 1002.4 +19.8
18 14.04 СВ 2 10 км 8/0
[Ac trans]
+15.6 +10.6 72 +16 +16 1009.9 1001.8
21 14.04 СВ 2 10 км 9/0
[Ac trans]
+13.5 +9.3 76 +13 +13 1008.6 1000.4
00 15.04 В 1 10 км 10/3 300 м
[Cb cap Ac lent]
+12.9 +9.4 79 +13 +13 1008.1 999.9
03 15.04 В 1 10 км 10/6 300 м
[Cb cap Ac lent]
+11.9 +8.5 80 +12 +12 1008.3 1000.1 +11.9
06 15.04 З 3 4000 м слаб. ливневой дождь 10/8 300 м
[Cb cap Ac lent]
+12.9 +11.6 92 +11 +12 1011.3 1003.1 +11.8
09 15.04 ЮЗ 3 10 км {ливн. осадки} 10/8 600 м
[Cb cap Ac lent]
+15.4 +10.8 74 +15 +15 1012.3 1004.1
12 15.04 ЮЗ 3 10 км {ливн. осадки} 8/8 600 м
[Cb cap]
+17.6 +9.5 59 +18 +19 1012.5 1004.4
15 15.04 СЗ 1 10 км 6/3 1000 м
[Cu med, cong Ci fib]
+17.7 +9.0 57 +19 +19 1012.3 1004.2 +18.8 3
18 15.04 ЮВ 1 10 км ясно +13.1 +9.4 78 +13 +13 1013.1 1004.8
21 15.04 З 1 4000 м дымка 10/0
[Ac und]
+10.0 +8.9 93 +9 +9 1013.1 1004.8
00 16.04 З 1 н/о н/о +10.3 +9.3 94 +10 +10 1012.7 1004.4
03 16.04 З 2 4000 м дымка 10/10 300 м
[Cb cap Ac lent]
+10.5 +9.1 91 +9 +9 1013.1 1004.8 +9.6
06 16.04 З 5-10
{10}
10 км {ливн. осадки} 10/4 300 м
[Cb cap Ac As]
+11.3 +9.1 86 +9 +9 1013.6 1005.2
09 16.04 З 4
{10}
4000 м слаб. ливневой дождь 10/8 300 м
[Cb cap Ac lent]
+11.7 +10.0 89 +9 +10 1013.4 1005.1
12 16.04 СЗ 3 10 км {ливн. осадки} 10/10 300 м
[Cb cap]
+14.4 +9.8 74 +14 +14 1012.8 1004.6
15 16.04 СЗ 2 10 км 10/3 300 м
[Cb cap Ac lent]
+13.2 +9.1 76 +13 +13 1012.8 1004.5 +14.5 3
18 16.04 З 3 10 км 6/0
[Ac cast]
+11.8 +9.1 84 +10 +10 1012.7 1004.4
21 16.04 З 2 10 км 10/10 600 м
[Sc]
+10.9 +9.1 89 +10 +10 1012.0 1003.7
00 17.04 З 3 4000 м дымка 10/10 600 м
[Sc]
+10.5 +9.5 94 +8 +8 1011.0 1002.7
03 17.04 С 2 4000 м дымка 10/10 300 м
[St]
+9.9 +9.2 95 +8 +8 1010.3 1002.0 +9.9
06 17.04 СВ 3 4000 м в посл. час ливневой дождь 10/6 300 м
[Cb cap Ac As]
+10.3 +9.5 95 +8 +9 1010.9 1002.6 +9.9
09 17.04 СВ 5-10
{11}
4000 м в посл. час ливневой дождь 10/8 300 м
[Cb cap Ac As]
+8.6 +7.3 92 +5 +5 1012.6 1004.2
12 17.04 СВ 6-14
{14}
4000 м слаб. ливневой дождь 10/10 300 м
[Cb cap]
+6.4 +4.9 90 +2 +2 1015.1 1006.6
15 17.04 СВ 5-11
{15}
4000 м слаб. ливневой дождь 10/10 300 м
[Cb cap]
+4.8 +3.4 91 -0 -0 1017.5 1009.0 +10.7 3
18 17.04 СВ 5
{12}
4000 м слаб. ливневой дождь 10/10 300 м
[Cb cap]
+4.0 +2.4 89 -1 -1 1019.7 1011.0
21 17.04 СВ 5-12
{12}
4000 м в посл. час ливневой дождь 10/8 300 м
[Cb cap Ac lent]
+2.1 +0.9 92 -4 -4 1021.3 1012.6
00 18.04 В 1
{12}
4000 м слаб. ливневой дождь 10/10 300 м
[Cb cap]
+0.8 +0.2 96 -1 -1 1021.9 1013.1
03 18.04 СВ 3 10 км {ливн. осадки} 10/3 600 м
[Cb cap Ac lent Cs]
+2.1 -3.3 67 -2 -2 1022.3 1013.6 +0.8 3
06 18.04 СВ 4
{10}
10 км {ливн. осадки} 9/3 600 м
[Cb cap Ac lent Cc]
+3.3 -3.8 60 -1 +1 1023.7 1015.1
09 18.04 СВ 3 10 км 10/0
[Ac lent Cs]
+6.9 -1.0 57 +4 +10 1024.0 1015.4
12 18.04 СВ 4
{11}
10 км 9/0
[Ac lent Cs]
+9.3 -4.8 37 +7 +10 1023.2 1014.7
15 18.04 СВ 3
{10}
10 км 8/0
[Ac lent Cs]
+8.1 -5.3 38 +6 +6 1023.0 1014.5 +9.7
18 18.04 СВ 2 10 км 6/0
[Ac cast]
+4.6 -3.1 57 +2 +2 1024.0 1015.4
21 18.04 СВ 2 10 км 8/0
[Ac cast]
+2.4 -3.3 66 -0 -0 1023.6 1014.9
00 19.04 СВ 2 10 км 6/0
[Ac cast]
+1.0 -3.8 70 -2 -2 1022.7 1014.0
03 19.04 В 3 10 км 6/0
[Ac cast]
+0.9 -4.7 66 -3 -3 1022.4 1013.6 +0.8
06 19.04 В 4 10 км 9/0
[Cs]
+5.4 -5.3 46 +2 +6 1022.4 1013.8
09 19.04 В 6-11
{13}
10 км 8/0
[Ac cast Cs]
+9.4 -8.2 28 +7 +11 1022.0 1013.5
12 19.04 В 5-12
{14}
10 км 10/0
[Ac cast Cs]
+10.3 -7.0 29 +8 +11 1021.3 1012.8
15 19.04 В 8-11
{12}
10 км 10/0
[Ac lent Cs]
+8.5 -9.0 28 +5 +5 1021.9 1013.4 +10.6
18 19.04 В 2
{11}
10 км 8/0
[Ac lent Cs]
+6.3 -7.0 38 +5 +5 1023.1 1014.5
21 19.04 В 3 10 км 10/0
[Cs]
+5.2 -6.5 43 +3 +3 1022.8 1014.2
00 20.04 СВ 2 10 км 3/0
[Ci sp]
+1.5 -5.2 61 -1 -1 1022.6 1013.9
03 20.04 СВ 2 10 км 3/0
[Ac lent]
+0.1 -4.6 71 -3 -3 1023.1 1014.3 -0.0
06 20.04 В 7-11
{11}
10 км 4/0
[Ci sp]
+7.7 -5.3 39 +4 +6 1023.4 1014.9
09 20.04 В 6-12
{14}
10 км 6/0
[Cs]
+11.4 -5.4 30 +9 +14 1023.3 1014.9
12 20.04 В 4
{14}
10 км 8/0
[Cs]
+11.6 -7.5 26 +10 +16 1022.8 1014.4
15 20.04 В 5
{10}
10 км 8/0
[Ac lent Cs]
+10.6 -8.1 26 +8 +9 1022.6 1014.2 +12.8
18 20.04 С 1 10 км 3/0
[Ci fib]
+3.5 -3.7 59 +3 +3 1023.8 1015.1
21 20.04 В 1 10 км 3/0
[Ci fib]
+2.5 -4.6 59 +1 +1 1023.4 1014.7

 

Местоположение метеостанции Белая Глина (Краснодарский край, Россия): широта 46.08 долгота 40.88 высота над уровнем моря 69 м.

В архиве по умолчанию представлена погода в Белой Глине за последнюю неделю. Архивные данные за месяц целиком и за предыдущие месяцы, начиная с января 2011 года, Вы можете получить, выбрав интересующий диапазон дат из раскрывающегося списка и нажав кнопку "Ввод!".


*Определитесь, кто Вы:
робот инопланетянин человек

Внимание! Время в таблицах - всемирное. Для получения местного времени необходимо прибавить поправку, которая равна 3 ч.

Смотрите также архив погоды в соседних городах и на ближайших метеорологических станциях:

Погода в Красногвардейском (Ставропольский край, Россия) (54 км)
Погода в Гиганте (Ростовская область, Россия) (61 км)
Погода в Тихорецке (Краснодарский край, Россия) (67 км)
Погода в Новоалександровске (Ставропольский край, Россия) (69 км)
Погода в Кропоткине (Краснодарский край, Россия) (76 км)
Погода в Сосыке (Краснодарский край, Россия) (81 км)
Погода в Городовиковске (Калмыкия, Россия) (84 км)
Погода в Зерноград (Ростовская область, Россия) (96 км)
Погода в Изобильном (Ставропольский край, Россия) (101 км)
Погода в Кущевской (Краснодарский край, Россия) (109 км)

Пояснения к столбцам:

Ветер - указаны скорость ветра в м/с - средняя за 10 мин, порывы в срок и между сроками (в фигурных скобках) и направление, откуда дует ветер: С - северный, СВ - северо-восточный, В - восточный, ЮВ - юго-восточный, Ю - южный, ЮЗ - юго-западный, З - западный, СЗ - северо-западный.
Видимость - горизонтальная дальность видимости в метрах или километрах. При видимости от 1 до 10 км при отсутствии осадков обычно наблюдается дымка, при ухудшении видимости до 1 км и менее - туман. В сухую погоду видимость может ухудшаться дымом, пылью или мглою.
Явления - указаны атмосферные явления, наблюдавшиеся в срок или в последний час перед сроком; фигурными скобками обозначены явления, наблюдавшиеся между сроками (за 1-3 часа до срока); квадратными скобками обозначены град или гололедные отложения с указанием их диаметра в мм.
Облачность - указаны через наклонную черту общая и нижняя облачность в баллах и высота нижней границы облаков в метрах; квадратными скобками обозначены формы облаков: Ci - перистые, Cs - перисто-слоистые, Cc - перисто-кучевые, Ac - высококучевые, As - высокослоистые, Sc - слоисто-кучевые, Ns - слоисто-дождевые, Cu - кучевые, Cb - кучево-дождевые. Подробнее классификацию облаков см. в Атласе облаков (PDF).
T - Температура воздуха - температура, измеренная на высоте 2 м над землей.
Td - Температура точки росы - температура, при понижении до которой содержащийся в воздухе водяной пар достигнет насыщения.
f - Относительная влажность воздуха - влажноcть воздуха, измеренная на высоте 2 м над землей.
Te - Эффективная температура - температура, которую ощущает одетый по сезону человек в тени. Характеристика душности погоды. При расчете учитывается влияние влажности воздуха и скорости ветра на теплоощущения человека.
Tes - Эффективная температура на солнце - температура, которую ощущает человек, с поправкой на солнечный нагрев. Характеристика знойности погоды. Зависит от высоты солнца над горизонтом, облачности и скорости ветра. Ночью, в пасмурную погоду, а также при ветре 12 м/с и более поправка равна нулю.
P - Атмосферное давление - приведенное к уровню моря атмосферное давление.
Po - Атмосферное давление - измеренное на уровне метеостанции атмосферное давление.
Tmin - Минимальная температура - минимум температуры воздуха на высоте 2 м над землей.
Tmax - Максимальная температура - максимум температуры воздуха на высоте 2 м над землей.
R - Количество осадков - Количество выпавших осадков за период времени, мм. При наведении курсора мыши на число - период времени, за который выпало указанное количество осадков.
R24 - Количество осадков - Количество выпавших осадков за 24 часа, мм.
S - Снежный покров - Высота снежного покрова, см. При наведении курсора мыши на число - состояние снежного покрова и степень покрытия местности в баллах.